OBJECT K, 59809

Orbit data source: Space-Track

You're viewing an Uncataloged Satellite

Recently launched and/or uncataloged satellites may have evolving metadata. Metadata may include but not limited to: Owner, Maufacturer, Bus, Motor, and Mission.

OBJECT K, 59809 is a satellite owned by Sitronics (CIS) in SSO that was launched on Thu, 16 May 2024 UTC via a SOYUZ-2-1B launch vehicle from the Plesetsk Missile And Space Complex (PKMTR). Unknown objects in Earth's orbit typically refer to objects detected orbiting the Earth but have not yet been identified or cataloged. These objects could be anything from previously untracked satellites, spent rocket stages, debris from satellite collisions, or even natural meteoroids temporarily captured by Earth's gravity.

Loading next visibility...
Identifier
59809, 2024-092K
Orbit
SSO
Last TLE update
17 hours ago
Origin
Manufacturer
Sputniks
Mission
Operational spacecraft
Bus & Motor
CUBESAT 3U?, Unknown motor
Mass
3 kg wet, 3 kg dry
Launch date (UTC)
2024-05-16 (1 year ago)
Launch vehicle
SOYUZ-2-1B
Launch site
Plesetsk Missile And Space Complex (PKMTR)
Object type
Unknown
Shape & HBR
Unknown
Radar Cross Section
Small (<0.1 m²)

Expand to show TLE details & history

TLE from 17 hours ago
0 OBJECT K
1 59809U 24092K   25191.33466286  .00006811  00000-0  29354-3 0  9996
2 59809  97.6246 309.8827 0008738 274.5372  85.4865 15.22874844 62986
Epoch: 2025-07-10T08:01Z
TLE epoch observation values (Epoch: 2025-07-10T08:01:54.871Z)
Latitude
-0.00008°
Longitude
-99.09835°
Altitude
499.795 km
Speed
7.615 km/s
True Right ascension
20h 39m 31s
True Declination
0° 00' 00"
Sunlit
Object was in full shadow at epoch
Visualization orbit readout
Latitude
-67.0858°
Longitude
63.25704°
Altitude
517.041 km
Speed
7.607 km/s
Apparent Right ascension
03h 09m 03s
Apparent Declination
-62° 36' 52"
Sunlit
Object is in daylight
Visualization observer readout
Local Sidereal Time
13:09:37
Azimuth
208.315° SW
Elevation
-61.13°
Doppler factor
1
Orbital elements
Apogee altitude
500.151 km
Perigee altitude
488.141 km
Semi-major axis
6,872.283 km
Eccentricity
0.00087
Inclination
97.6246°
RAAN
309.8827°
Arg. of periapsis
274.5372°
True anomaly
Unknown
Mean anomaly
85.4865°
Eccentric anomaly
Unknown
Mean motion
3.80971 °/min
Orbital period
94.5 mins
BSTAR
0.00029354
Loading maneuver chart data...
Loading SW <> Apogee altitude chart data...
Loading historical data...
Loading historical data...
Loading historical data...
Loading historical data...
Loading historical data...
Loading historical data...
Loading historical data...

OBJECT K Visibility forecast

Observer location: undefined°, undefined°

Span
Click to sort rows by Start time (UTC) header in descending order
Start Az.
Max El. time (UTC)
Max El. Az.
Max El.
End time (UTC)
End Az.
7 mins2025-07-11 07:48:19.041Z158.68° S2025-07-11 07:52:19.041Z28.614° NE40.882°2025-07-11 07:55:19.041Z353.296° N
6 mins2025-07-11 20:52:19.041Z9.489° NNE2025-07-11 20:54:19.041Z356.487° N42.129°2025-07-11 20:58:19.041Z196.099° SSW
|